Torna al catalogo

STARLINK-35270

AttivoComunicazioniVLEO
NORAD 65882·PAYLOAD·🇺🇸 United States

Lanciato Oct 7, 2025 da Cape Canaveral Space Force Station

Loading…

Prossimi Passaggi (prossime 24 ore)

TLE

AggiornatoSource: CelesTrak SupGP

Epoca: Sep 14, 2026, 14:39 UTC

1 65882C 25224A   26257.61090278  .00003666  00000+0  10822-3 0  2572
2 65882  53.1576 209.6032 0001372  98.5878  83.1139 15.34414485    13

Traccia STARLINK-35270 in tempo reale con AllMySat

Download on the App Store